Date,TemperatureHighF,TemperatureAvgF,TemperatureLowF,DewpointHighF,DewpointAvgF,DewpointLowF,HumidityHigh,HumidityAvg,HumidityLow,PressureMaxIn,PressureMinIn,WindSpeedMaxMPH,WindSpeedAvgMPH,GustSpeedMaxMPH,PrecipitationSumIn
2013-1-1,78,73,63,66,62,59,89,69,60,30.19,30.05,14,3,14,0.00
2013-1-2,78,70,61,69,65,59,97,84,70,30.09,29.98,10,1,10,0.00
2013-1-3,80,73,66,71,68,64,95,84,70,30.12,30.02,11,1,11,0.00
2013-1-4,82,73,65,74,69,63,97,88,73,30.21,30.09,9,1,9,0.00
2013-1-5,78,71,66,73,68,64,97,91,78,30.24,30.15,8,1,8,0.09
2013-1-6,80,76,66,73,71,64,97,85,76,30.18,30.06,11,2,13,0.00
2013-1-7,80,72,67,72,69,66,96,90,70,30.16,30.06,11,1,11,0.08
2013-1-8,81,77,73,74,72,70,93,85,78,30.19,30.06,12,3,13,0.17
2013-1-9,81,78,76,73,72,69,88,81,76,30.27,30.15,14,4,15,0.00
2013-1-10,80,77,75,70,68,64,81,74,60,30.29,30.17,15,4,15,0.00
2013-1-11,80,76,74,71,69,67,87,77,70,30.25,30.14,12,4,14,0.01
2013-1-12,80,76,73,71,68,65,83,77,69,30.18,30.08,12,2,12,0.00
2013-1-13,79,76,74,69,67,63,83,74,65,30.12,30.06,13,4,14,0.00
2013-1-14,79,75,73,68,65,62,78,71,65,30.17,30.11,13,3,13,0.00
2013-1-15,78,75,73,69,67,64,84,77,70,30.13,30.04,11,2,11,0.01
2013-1-16,80,76,72,72,68,62,92,78,69,30.10,30.01,13,3,13,0.05
2013-1-17,79,71,60,72,67,55,97,87,76,30.08,29.97,18,2,18,0.19
2013-1-18,71,64,53,62,55,47,83,73,61,30.23,30.08,12,2,13,0.00
2013-1-19,72,69,64,68,65,59,96,88,66,30.21,30.08,8,1,10,0.37
2013-1-20,80,71,63,71,67,62,98,89,72,30.14,30.01,9,1,9,0.09
2013-1-21,79,71,66,72,68,64,97,91,75,30.06,29.96,8,1,8,0.23
2013-1-22,78,69,62,65,61,55,96,77,60,30.20,30.00,16,3,17,0.01
2013-1-23,76,69,60,60,56,52,84,64,53,30.28,30.18,14,2,15,0.00
2013-1-24,77,66,57,60,55,52,89,70,50,30.29,30.19,10,1,11,0.00
2013-1-25,78,67,56,64,57,51,86,72,54,30.28,30.17,10,1,10,0.00
2013-1-26,79,68,58,64,60,54,94,76,56,30.25,30.16,11,1,11,0.00
2013-1-27,79,73,64,66,63,60,88,73,57,30.27,30.19,11,1,12,0.00
2013-1-28,79,75,72,68,65,63,79,72,64,30.31,30.22,12,3,12,0.00
2013-1-29,78,75,74,70,68,65,82,78,74,30.23,30.12,13,4,13,0.00
2013-1-30,78,75,73,70,67,64,87,77,69,30.12,29.96,17,4,17,0.00
2013-1-31,74,68,59,72,60,42,94,77,50,30.17,29.94,12,2,13,0.00